Weather History for KLIT - July, 2004

Change the Weather History Date:

Saturday, July 17, 2004

  Actual Average Record
Temperature  
Mean Temperature 83 °F 83 °F  
Max Temperature 91 °F 92 °F 106 °F (1980)
Min Temperature 75 °F 73 °F 62 °F (1945)
Degree Days  
Heating Degree Days 0 0  
Month to date heating degree days 0  
Since 1 June heating degree days 1  
Since 1 July heating degree days 0  
Cooling Degree Days 18 18  
Month to date cooling degree days 292  
Year to date cooling degree days 1001  
Since 1 June cooling degree days 705  
Growing Degree Days 33 (Base 50)    
Moisture  
Dew Point 73 °F    
Average Humidity 76    
Maximum Humidity 100    
Minimum Humidity 52    
Precipitation  
Precipitation 0.03 in 0.12 in 0.63 in (1994)
Month to date precipitation 2.11  
Year to date precipitation 27.02  
Snow  
Snow 0.00 in 0.00 in - ()
Month to date snowfall 0.0  
Since 1 June snowfall 0.0  
Since 1 July snowfall 0.0  
Snow Depth -    
Sea Level Pressure  
Sea Level Pressure 29.85 in    
Wind  
Wind Speed 6 mph (NNW)    
Max Wind Speed 12 mph    
Max Gust Speed -    
Visibility 8 miles    
Events Thunderstorm    
T = Trace of Precipitation, MM = Missing Value Source: NWS Daily Summary

Daily Weather History Graph

Daily Weather History Graph

Search for Another Location

Airport or City:

Trip Planner

Search our weather history database for the weather conditions in past years. The results will help you decide how hot, cold, wet, or windy it might be!

Date:

Astronomy

Jul. 17, 2004 Rise Set
Actual Time 6:08 AM CDT 8:21 PM CDT
Civil Twilight 5:39 AM CDT 8:50 PM CDT
Nautical Twilight 5:04 AM CDT 9:25 PM CDT
Astronomical Twilight 4:26 AM CDT 10:02 PM CDT
Moon 5:59 AM CDT (7/17) 9:01 PM CDT (7/17)
Length of Visible Light 15h 10m
Length of Day
14h 12m
New Moon, 0% of the Moon is Illuminated
Jul 17
New Moon
Jul 24
First Quarter
Jul 31
Full
Aug 7
Last Quarter
Aug 15
New

Hourly Weather History & Observations

Time (CDT) Temp. Heat Index Dew Point Humidity Pressure Visibility Wind Dir Wind Speed Gust Speed Precip Events Conditions
12:53 AM 75.0 °F - 73.9 °F 96% 29.84 in 5.0 mi SW 4.6 mph - 0.03 in Thunderstorm Overcast
1:17 AM 75.2 °F - 73.4 °F 94% 29.83 in 6.0 mi Calm Calm - N/A   Overcast
1:53 AM 75.0 °F - 73.9 °F 96% 29.83 in 6.0 mi West 3.5 mph - N/A   Mostly Cloudy
2:53 AM 75.0 °F - 73.9 °F 96% 29.82 in 5.0 mi NW 4.6 mph - N/A   Mostly Cloudy
3:53 AM 75.0 °F - 75.0 °F 100% 29.82 in 5.0 mi Calm Calm - N/A   Partly Cloudy
4:53 AM 75.9 °F - 75.0 °F 97% 29.82 in 7.0 mi NW 5.8 mph - N/A   Partly Cloudy
5:53 AM 75.9 °F - 75.0 °F 97% 29.83 in 7.0 mi NNW 6.9 mph - N/A   Scattered Clouds
6:53 AM 77.0 °F - 75.0 °F 94% 29.84 in 7.0 mi NW 6.9 mph - N/A   Scattered Clouds
7:45 AM 78.8 °F - 75.2 °F 89% 29.85 in 7.0 mi NNW 6.9 mph - N/A   Scattered Clouds
7:53 AM 79.0 °F - 75.9 °F 90% 29.85 in 7.0 mi NW 5.8 mph - N/A   Scattered Clouds
8:53 AM 80.1 °F 85.1 °F 75.0 °F 85% 29.87 in 10.0 mi WNW 6.9 mph - N/A   Scattered Clouds
9:41 AM 80.6 °F 86.2 °F 75.2 °F 84% 29.89 in 10.0 mi WNW 10.4 mph - N/A   Mostly Cloudy
9:53 AM 82.0 °F 88.6 °F 75.0 °F 79% 29.89 in 10.0 mi WNW 8.1 mph - N/A   Mostly Cloudy
10:53 AM 84.9 °F 93.3 °F 75.0 °F 72% 29.89 in 10.0 mi NNW 6.9 mph - N/A   Mostly Cloudy
11:32 AM 86.0 °F 93.4 °F 73.4 °F 66% 29.88 in 10.0 mi North 8.1 mph - N/A   Mostly Cloudy
11:53 AM 87.1 °F 95.4 °F 73.9 °F 65% 29.88 in 10.0 mi Variable 6.9 mph - N/A   Mostly Cloudy
12:53 PM 88.0 °F 97.5 °F 75.0 °F 65% 29.86 in 10.0 mi NW 9.2 mph - N/A   Mostly Cloudy
1:53 PM 90.0 °F 96.9 °F 72.0 °F 55% 29.85 in 10.0 mi NW 9.2 mph - N/A   Mostly Cloudy
2:53 PM 91.0 °F 98.2 °F 72.0 °F 53% 29.83 in 10.0 mi NW 11.5 mph - N/A   Mostly Cloudy
3:53 PM 90.0 °F 96.4 °F 71.1 °F 54% 29.82 in 10.0 mi North 10.4 mph - N/A   Mostly Cloudy
4:53 PM 90.0 °F 96.4 °F 71.1 °F 54% 29.82 in 7.0 mi North 11.5 mph - N/A   Mostly Cloudy
5:53 PM 89.1 °F 93.7 °F 69.1 °F 52% 29.83 in 7.0 mi North 10.4 mph - N/A   Mostly Cloudy
6:53 PM 87.1 °F 91.3 °F 69.1 °F 55% 29.83 in 7.0 mi North 11.5 mph - N/A   Mostly Cloudy
7:53 PM 84.0 °F 87.8 °F 69.1 °F 61% 29.85 in 7.0 mi North 8.1 mph - N/A   Mostly Cloudy
8:53 PM 81.0 °F 83.8 °F 68.0 °F 65% 29.86 in 7.0 mi North 4.6 mph - N/A   Scattered Clouds
9:53 PM 78.1 °F - 69.1 °F 74% 29.88 in 7.0 mi NNW 6.9 mph - N/A   Clear
10:53 PM 77.0 °F - 68.0 °F 74% 29.89 in 7.0 mi North 8.1 mph - N/A   Clear
11:53 PM 79.0 °F - 68.0 °F 69% 29.90 in 7.0 mi North 9.2 mph - N/A   Partly Cloudy